[[{"header":{"parameterUnit":"m.s-1","parameterCategory":1,"la1":30.2991,"la2":30.254,"lo1":-89.0895,"lo2":-89.0444,"dy":0.0017,"dx":0.0017,"nx":28,"ny":28,"refTime":"2023-08-04T21:00:00:Z","depth":0,"parameterNumber":2,"parameterNumberName":"U-component_of_WINDS"},"data":[0,0,0,0,0,0,0,0,0,0,0,0,0,0,0,0,0,0,0,0,0,0,0,0,0,0,0,0,0,0,0,0,0,0,0,0,0,0,0,0,0,0,0,0,0,0,0,0,0,0,0,0,0,0,0,0,0,0,1.1571,1.1573,0,1.1743,1.1745,1.1747,1.1807,1.1806,1.1805,1.1805,1.198,1.1985,1.199,0,0,0,0,0,0,0,0,0,0,0,0,0,1.1292,1.1297,1.1571,1.1573,1.1575,1.1743,1.1746,1.1748,1.1807,1.1806,1.1805,1.1804,1.1978,1.1984,1.1991,0,0,0,0,0,0,0,0,0,0,0,0,0,1.1433,1.1298,1.1571,1.1625,1.1632,1.1743,1.1746,1.1749,1.1807,1.1806,1.1805,1.1804,1.1976,1.1984,1.1991,1.2061,0,0,1.2016,1.2019,0,0,0,0,0,0,0,0,1.1425,1.1444,1.1615,1.1621,1.1629,1.1753,1.1711,1.1853,1.1807,1.174,1.1805,1.1803,1.1905,1.1919,1.1953,1.2069,1.2076,1.2016,1.2021,1.2025,1.2027,0,0,0,0,0,0,0,1.1415,1.1437,1.1639,1.1617,1.1626,1.164,1.1659,1.1739,1.1826,1.1746,1.1751,1.177,1.1909,1.1945,1.1958,1.2079,1.2016,1.2023,1.2028,1.2031,1.2261,1.2262,0,0,0,0,0,0,1.1397,1.1428,1.1634,1.1644,1.1523,1.1646,1.1667,1.1714,1.1825,1.1841,1.1771,1.1772,1.1932,1.1948,1.1964,1.2053,1.2025,1.2032,1.2037,1.2259,1.2261,1.2262,0,0,0,0,0,0,1.139,1.1414,1.1627,1.1538,1.1566,1.1652,1.1704,1.1718,1.1755,1.1844,1.186,1.1793,1.1932,1.1953,1.2036,1.2059,1.2036,1.2043,1.2258,1.226,1.2262,1.223,0,0,0,0,0,0,1.1382,1.1412,1.1439,1.1538,1.157,1.1696,1.1705,1.1722,1.1768,1.1772,1.1869,1.1884,1.1933,1.2024,1.2044,1.207,1.2049,1.2256,1.2259,1.2261,1.2229,1.223,1.2232,0,0,0,0,0,1.1372,1.1423,1.144,1.1465,1.1606,1.1698,1.1716,1.1772,1.177,1.1798,1.1856,1.1881,1.2054,1.2032,1.2055,1.2084,1.2255,1.2258,1.2261,1.2229,1.223,1.2231,0,0,0,0,0,0,1.1324,1.1437,1.1457,1.1542,1.161,1.1707,1.1745,1.1772,1.1841,1.1842,1.1908,1.1929,1.2007,1.2054,1.2028,1.2157,1.2156,1.2163,1.2123,1.2125,1.2127,1.2113,1.2056,0,0,0,0,0,1.1324,1.1389,1.1484,1.1549,1.1582,1.1657,1.1699,1.1737,1.1809,1.1838,1.1902,1.1971,1.2041,1.2086,1.2156,1.2236,1.2258,1.2267,1.2268,1.2269,1.2275,1.2321,1.2326,1.2272,1.2272,1.2272,0,0,1.1323,1.1393,1.143,1.1541,1.1598,1.1664,1.1681,1.175,1.1799,1.1849,1.1931,1.1981,1.2062,1.2145,1.2184,1.2186,1.2295,1.2273,1.2272,1.2278,1.2324,1.2329,1.2334,1.2274,1.2274,1.2274,0,0,1.1355,1.1415,1.1476,1.1533,1.1619,1.1669,1.1683,1.1777,1.1812,1.1896,1.1935,1.1994,1.2114,1.217,1.2215,1.2269,1.2294,1.229,1.2296,1.234,1.2344,1.2348,1.2367,1.2373,1.2295,1.2295,1.2295,0,1.1343,1.1444,1.1503,1.1571,1.1618,1.1667,1.1729,1.1781,1.1885,1.1917,1.1918,1.2069,1.2128,1.2224,1.2237,1.2272,1.229,1.2279,1.2339,1.2343,1.2348,1.2367,1.2374,1.2294,1.2294,1.2294,1.2294,0,1.1425,1.1494,1.1533,1.1633,1.1686,1.175,1.1819,1.1865,1.1897,1.1947,1.2032,1.2104,1.2189,1.2215,1.2247,1.2316,1.2314,1.2326,1.2326,1.2351,1.237,1.2378,1.2292,1.2293,1.2293,1.2293,0,0,1.1431,1.1564,1.1577,1.1623,1.1722,1.1777,1.1843,1.1927,1.1965,1.2035,1.2092,1.2192,1.2204,1.2254,1.2294,1.2333,1.2371,1.234,1.2343,1.2343,1.245,1.244,1.2448,1.2388,1.239,1.2391,1.2443,0,1.1476,1.1597,1.1652,1.1749,1.1813,1.1861,1.1919,1.1985,1.2033,1.2095,1.2148,1.2218,1.2228,1.2259,1.23,1.2357,1.2393,1.2354,1.2442,1.2444,1.2419,1.2458,1.2448,1.2493,1.2451,1.2453,1.2453,0,1.1544,1.1615,1.1718,1.181,1.1839,1.189,1.1971,1.203,1.2106,1.2139,1.2195,1.2233,1.2304,1.23,1.2398,1.2371,1.241,1.2444,1.2447,1.2457,1.245,1.2468,1.2509,1.2516,1.2466,1.2465,1.2464,0,1.1537,1.1659,1.1736,1.1774,1.1883,1.1918,1.1965,1.2041,1.2088,1.2159,1.219,1.2268,1.231,1.2369,1.2427,1.2419,1.252,1.2521,1.2549,1.2547,1.2568,1.2565,1.2615,1.2593,1.2593,1.2593,1.2593,0,1.1581,1.1642,1.1735,1.1782,1.1852,1.1915,1.1982,1.2033,1.21,1.2158,1.2203,1.2256,1.233,1.2392,1.2438,1.2512,1.2531,1.2559,1.257,1.2555,1.2551,1.2581,1.2579,1.2595,1.2595,1.2594,1.2594,0,1.1585,1.165,1.1737,1.1834,1.186,1.1907,1.1989,1.2037,1.2088,1.216,1.2181,1.226,1.2336,1.24,1.2499,1.253,1.2607,1.2621,1.2581,1.2587,1.2611,1.2608,1.2681,1.2694,1.2664,1.2664,1.2664,0,1.1609,1.1657,1.1759,1.1801,1.1848,1.1915,1.1964,1.2028,1.2076,1.2167,1.2204,1.2283,1.235,1.2469,1.2535,1.2611,1.2627,1.2647,1.2638,1.2621,1.2627,1.2623,1.2628,1.2647,1.2647,1.2647,1.2647,0,1.1643,1.1673,1.1741,1.1821,1.1877,1.1943,1.2009,1.2041,1.2118,1.217,1.2248,1.23,1.2402,1.248,1.2563,1.2611,1.2642,1.265,1.266,1.2644,1.2619,1.2633,1.2582,1.2648,1.2648,1.2648,1.2648,1.2647,1.1658,1.1703,1.1782,1.1856,1.1913,1.1975,1.2024,1.2082,1.2148,1.2237,1.2271,1.2351,1.2426,1.2542,1.259,1.2653,1.2658,1.2673,1.2677,1.2679,1.2677,1.261,1.2669,1.2669,1.2669,1.2669,1.2669,0,1.1694,1.1748,1.1816,1.1908,1.1966,1.1991,1.2066,1.2113,1.2184,1.2252,1.2317,1.2407,1.2483,1.2555,1.2635,1.2671,1.2687,1.269,1.2688,1.2698,1.2669,1.2652,1.2676,1.2676,1.2676,1.2676,1.2676,1.2676,1.172,1.1798,1.1837,1.1943,1.1996,1.2076,1.2116,1.2173,1.2228,1.2327,1.239,1.2437,1.2508,1.2593,1.2663,1.2683,1.2709,1.2708,1.2731,1.2702,1.27,1.2699,1.2683,1.2714,1.2714,1.2756,1.2756,1.2756]},{"header":{"parameterUnit":"m.s-1","parameterCategory":1,"la1":30.2991,"la2":30.254,"lo1":-89.0895,"lo2":-89.0444,"dy":0.0017,"dx":0.0017,"nx":28,"ny":28,"refTime":"2023-08-04T21:00:00:Z","depth":0,"parameterNumber":3,"parameterNumberName":"V-component_of_WINDS"},"data":[0,0,0,0,0,0,0,0,0,0,0,0,0,0,0,0,0,0,0,0,0,0,0,0,0,0,0,0,0,0,0,0,0,0,0,0,0,0,0,0,0,0,0,0,0,0,0,0,0,0,0,0,0,0,0,0,0,0,6.0515,6.0515,0,6.0515,6.0515,6.0515,6.0444,6.0442,6.044,6.0438,6.0438,6.0439,6.0441,0,0,0,0,0,0,0,0,0,0,0,0,0,6.0451,6.0452,6.0515,6.0515,6.0515,6.0515,6.0515,6.0515,6.0444,6.0442,6.0439,6.0437,6.0437,6.0439,6.0441,0,0,0,0,0,0,0,0,0,0,0,0,0,6.0468,6.0453,6.0515,6.0479,6.0476,6.0515,6.0515,6.0515,6.0444,6.0442,6.0439,6.0436,6.0436,6.0439,6.0441,6.0514,0,0,6.0449,6.0451,0,0,0,0,0,0,0,0,6.0467,6.047,6.0484,6.0482,6.0478,6.0477,6.0493,6.0515,6.0445,6.0456,6.0438,6.0435,6.0453,6.0454,6.046,6.0514,6.0514,6.045,6.0451,6.0452,6.0453,0,0,0,0,0,0,0,6.0466,6.047,6.0515,6.0485,6.0481,6.0463,6.0462,6.0497,6.047,6.0455,6.045,6.0451,6.045,6.0458,6.046,6.0514,6.045,6.0452,6.0454,6.0455,6.0629,6.0632,0,0,0,0,0,0,6.047,6.0469,6.0515,6.0515,6.0466,6.0466,6.0466,6.048,6.047,6.0466,6.0454,6.0448,6.0455,6.0457,6.0459,6.0544,6.0452,6.0455,6.0456,6.0626,6.063,6.0633,0,0,0,0,0,0,6.0469,6.0474,6.0515,6.0491,6.0495,6.0471,6.0487,6.0481,6.0489,6.0469,6.0463,6.0466,6.0453,6.0456,6.0501,6.0543,6.0456,6.0458,6.0622,6.0627,6.0631,6.0715,0,0,0,0,0,0,6.0467,6.0475,6.0502,6.0492,6.0496,6.0558,6.049,6.0484,6.0494,6.0486,6.0479,6.0475,6.0451,6.0498,6.0504,6.0545,6.046,6.0618,6.0624,6.063,6.0708,6.0722,6.0733,0,0,0,0,0,6.0465,6.0525,6.0504,6.051,6.053,6.056,6.0562,6.0533,6.0497,6.0525,6.0512,6.0475,6.0538,6.0503,6.0509,6.0552,6.0616,6.0623,6.0629,6.0702,6.0719,6.0733,0,0,0,0,0,0,6.054,6.0523,6.0499,6.0558,6.0561,6.0548,6.0581,6.0552,6.0565,6.0557,6.052,6.0519,6.0571,6.0566,6.0528,6.0622,6.057,6.0579,6.0624,6.0639,6.0651,6.0651,6.0463,0,0,0,0,0,6.0564,6.059,6.0573,6.0627,6.063,6.0606,6.0617,6.0595,6.0597,6.0597,6.0588,6.059,6.0611,6.0625,6.0642,6.0707,6.0705,6.074,6.0752,6.0763,6.077,6.0805,6.082,6.0656,6.0655,6.0655,0,0,6.0612,6.0606,6.0625,6.0642,6.0641,6.0669,6.0607,6.0639,6.0659,6.0602,6.0645,6.0638,6.0638,6.0695,6.0719,6.0692,6.0815,6.0771,6.078,6.0782,6.0813,6.0829,6.0843,6.066,6.0659,6.0659,0,0,6.0715,6.0713,6.0757,6.0759,6.0759,6.0743,6.0754,6.0746,6.0739,6.0782,6.074,6.0763,6.0799,6.0801,6.0807,6.0912,6.0878,6.0918,6.0983,6.1017,6.103,6.1041,6.1079,6.1093,6.0926,6.0926,6.0926,0,6.0775,6.0815,6.0784,6.0818,6.0827,6.0778,6.0823,6.0825,6.0832,6.0839,6.0809,6.0853,6.085,6.0906,6.0932,6.0938,6.0949,6.0918,6.1031,6.1042,6.1052,6.1087,6.1101,6.0931,6.093,6.093,6.093,0,6.0889,6.0917,6.0953,6.0961,6.0974,6.1013,6.0988,6.1005,6.0982,6.0969,6.1013,6.1008,6.1024,6.1035,6.1013,6.1088,6.1072,6.1037,6.0984,6.1073,6.1105,6.1119,6.0938,6.0936,6.0935,6.0934,0,0,6.1037,6.1029,6.1042,6.1045,6.1043,6.1065,6.1102,6.1118,6.1133,6.114,6.117,6.1202,6.117,6.1177,6.1154,6.1184,6.1267,6.1145,6.1145,6.1168,6.135,6.1376,6.1392,6.1246,6.1248,6.125,6.135,0,6.1136,6.12,6.1174,6.124,6.1266,6.122,6.1253,6.1255,6.1245,6.1265,6.1252,6.1276,6.1232,6.1236,6.1263,6.1251,6.1303,6.1244,6.1273,6.1275,6.1274,6.1409,6.1436,6.1531,6.1363,6.1365,6.1366,0,6.126,6.1273,6.1342,6.1335,6.1345,6.1375,6.1388,6.1408,6.141,6.14,6.1408,6.1379,6.1415,6.1363,6.1413,6.1373,6.1383,6.138,6.1382,6.1384,6.1326,6.1414,6.1561,6.1575,6.1386,6.1384,6.1383,0,6.1362,6.1395,6.1441,6.1445,6.1439,6.1462,6.146,6.1459,6.147,6.1482,6.1489,6.1504,6.1512,6.1525,6.1501,6.1465,6.1554,6.1499,6.1546,6.1547,6.1566,6.1565,6.1717,6.1574,6.1574,6.1574,6.1574,0,6.1475,6.1519,6.1487,6.1515,6.1563,6.1532,6.1581,6.1574,6.1574,6.1599,6.1561,6.1586,6.1553,6.1575,6.1556,6.16,6.1604,6.1597,6.1591,6.16,6.1601,6.1606,6.1599,6.1578,6.1577,6.1576,6.1575,0,6.1596,6.1576,6.1623,6.1614,6.1613,6.1649,6.164,6.1666,6.1653,6.1686,6.1692,6.1672,6.1696,6.1673,6.1696,6.1683,6.1742,6.1727,6.1741,6.1737,6.1785,6.1781,6.1945,6.1964,6.181,6.1811,6.1813,0,6.1669,6.1702,6.1697,6.1712,6.1713,6.1737,6.1749,6.1721,6.1734,6.1739,6.1764,6.1785,6.18,6.184,6.1827,6.1844,6.1829,6.1886,6.1832,6.184,6.183,6.1828,6.1831,6.1897,6.1898,6.19,6.1901,0,6.1801,6.179,6.1809,6.1825,6.1841,6.1852,6.1859,6.1874,6.1844,6.1862,6.1886,6.1898,6.1922,6.1943,6.1956,6.1954,6.1923,6.1918,6.193,6.1939,6.1946,6.1943,6.1771,6.1915,6.1913,6.1912,6.1911,6.1911,6.19,6.1928,6.1929,6.1951,6.1954,6.1963,6.1987,6.1977,6.1997,6.2014,6.1996,6.2026,6.2027,6.2042,6.2043,6.2066,6.2042,6.2059,6.2063,6.2068,6.2075,6.1943,6.2068,6.2068,6.2068,6.2067,6.2067,0,6.203,6.2029,6.205,6.2063,6.2081,6.2051,6.2058,6.2075,6.2102,6.2106,6.2122,6.215,6.217,6.216,6.2177,6.2197,6.2184,6.2203,6.2201,6.2201,6.2095,6.2083,6.2214,6.2214,6.2214,6.2214,6.2214,6.2214,6.21,6.2145,6.2134,6.218,6.2178,6.2207,6.2214,6.2222,6.2225,6.2258,6.2276,6.2268,6.2267,6.2284,6.2301,6.2298,6.2306,6.233,6.2322,6.2223,6.2208,6.2195,6.2183,6.2332,6.2333,6.2425,6.2426,6.2427]}]]